Regional Weather Roundup
Issued by NWS Sterling, VA

Home | Current Version | Previous Version | Text Only | Print | Product List | Glossary On
Versions: 1 2 3 4 5 6 7 8 9 10 11 12 13 14 15 16 17 18 19 20 21 22 23 24 25 26 27 28 29 30 31 32 33 34 35 36 37 38 39 40 41 42 43 44 45 46 47 48 49 50
000
ASUS41 KLWX 311510
RWRLWX

REGIONAL WEATHER ROUNDUP
NATIONAL WEATHER SERVICE BALTIMORE MD/WASHINGTON DC
1100 AM EDT THU JUL 31 2014

Note: "FAIR" indicates few or no clouds below 12,000 feet
with no significant weather and/or obstructions to visibility.
 TC=TEMPERATURE CELSIUS

 * =Non NWS site. Station does not report precipitation (e.g. rain,
    snow, etc.), thunder, or fog.

DCZ001-MDZ009-015-VAZ040>042-051-053>054-311600-
WASHINGTON METRO
  /KDAA//-FT BELVOIR

CITY           SKY/WX    TMP DP  RH WIND       PRES   REMARKS
WASHINGTON NAT MOSUNNY   80  61  52 S6        30.11F
DULLES         MOSUNNY   77  58  51 VRB5      30.11S
ANDREWS AFB    SUNNY     79  63  56 SW10      30.11S
QUANTICO       MOSUNNY   78  67  68 S10       30.12S
COLLEGE PARK*  SUNNY     81  59  47 S3        30.10S
LEESBURG*      SUNNY     77  63  61 CALM      30.12S
MANASSAS*      SUNNY     75  63  64 CALM      30.11F
GAITHERSBURG*  SUNNY     75  59  57 W6        30.15S

$$

MDZ006>007-011-014-311600-
BALTIMORE METRO

CITY           SKY/WX    TMP DP  RH WIND       PRES   REMARKS
BWI AIRPORT    MOSUNNY   79  58  48 SW5       30.10S
MD SCIENCE CTR   N/A     79  58  48 MISG      30.10S
MARTIN STATE   SUNNY     77  66  69 SE6       30.12R
ANNAPOLIS      SUNNY     79  62  56 SW9       30.10F
FORT MEADE*    SUNNY     77  61  57 S5        30.13R

$$

MDZ012-015-019>023-311600-
MARYLAND EASTERN SHORE

CITY           SKY/WX    TMP DP  RH WIND       PRES   REMARKS
OCEAN CITY     MOSUNNY   80  67  64 SW8       30.14S
SALISBURY      MOSUNNY   81  63  54 W8        30.14R
BAY BRIDGE AP*   N/A     77  61  57 SW9       30.11S
CAMBRIDGE*     SUNNY     79  63  57 SW5       30.12S
EASTON*        MOSUNNY   81  66  61 SW13      30.16S

$$

MDZ017>025-311600-
SOUTHERN MARYLAND

CITY           SKY/WX    TMP DP  RH WIND       PRES   REMARKS
PATUXENT RIVER MOSUNNY   80  63  55 SW8       30.13R
ST INIGOES     SUNNY     79  65  62 SW7       30.13R
LEONARDTOWN*   SUNNY     77  63  61 SW6       30.14S

$$

MDZ003>005-311600-
NORTH CENTRAL MARYLAND

CITY           SKY/WX    TMP DP  RH WIND       PRES   REMARKS
FREDERICK*     SUNNY     79  66  65 SW7       30.14R
HAGERSTOWN APT SUNNY     73  59  61 W9        30.12R
WESTMINSTER*   SUNNY     75  64  69 SW6       30.12R

$$

MDZ501>502-311600-
WESTERN MARYLAND

CITY           SKY/WX    TMP DP  RH WIND       PRES   REMARKS
OAKLAND*       MOSUNNY   64  59  82 W10       30.18S
CUMBERLAND*    MOSUNNY   77  61  57 CALM      30.15S

$$

VAZ025>031-311600-
SHENANDOAH VALLEY

CITY           SKY/WX    TMP DP  RH WIND       PRES   REMARKS
WINCHESTER*    SUNNY     77  55  47 SW8       30.12R
STAUNTON*      SUNNY     76  56  51 CALM      30.16S

$$

WVZ021-048>050-054>055-311600-
EASTERN WEST VIRGINIA PANHANDLE

CITY           SKY/WX    TMP DP  RH WIND       PRES   REMARKS
MARTINSBURG    PTSUNNY   75  58  55 CALM      30.12S
PETERSBURG*      N/A    N/A N/A N/A MISG        N/A

$$

VAZ036>039-050-311600-
CENTRAL FOOTHILLS

CITY           SKY/WX    TMP DP  RH WIND       PRES   REMARKS
CHARLOTTESVILL SUNNY     78  59  51 W8        30.13R
ORANGE*        SUNNY     79  61  53 S8        30.14R

$$

VAZ055>057-311600-
NORTH AND CENTRAL PIEDMONT

CITY           SKY/WX    TMP DP  RH WIND       PRES   REMARKS
FREDERICKSBRG* SUNNY     80  65  60 SW6       30.11S
STAFFORD*      SUNNY     80  64  58 SW7       30.15S

$$

NCZ024-NYZ072-PAZ021-071-VAZ022-071-311600-
OTHER REGIONAL OBSERVATIONS

CITY           SKY/WX    TMP DP  RH WIND       PRES   REMARKS
NEW YORK CITY  MOSUNNY   75  57  53 MISG      30.13S
PHILADELPHIA   MOSUNNY   78  62  57 SW10      30.11S
PITTSBURGH     MOSUNNY   69  59  70 SW6       30.10R
ROANOKE        PTSUNNY   74  57  55 CALM      30.17S
RICHMOND       PTSUNNY   79  65  62 S7        30.14R
RALEIGH        CLOUDY    77  68  73 SE5       30.15R

$$

ANZ530>537-311600-
MARINE OBSERVATIONS

STATION/POSITION TIME  TEMP    WIND        PRES
                       AIR SEA DIR/SP/G
                 (UTC) (F)     (DEG/KT/KT) (MB)
THOMAS PT LIGHT  1500   74 77  190/ 12/ 14 1020.2S
BALT KEY BRIDGE  1500   74     110/  4/  5 1019.1R
COVE POINT       1500   76     260/  9/ 11 1019.9S
LEWISETTA        1500   77 77  240/  8/  9 1020.1R
SOLOMONS ISLAND  1500      79                N/A
PINEY POINT      1500          250/  3/  4   N/A

$$



USA.gov is the U.S. government's official web portal to all federal, state and local government web resources and services.